Location: Echo Hill Outdoor School
(39.3621°N, 76.1137°W)
Time: 00:36:37
(UTC-05:00)

Envisat - Visible Passes

Search period start: 21 February 2018 00:00
Search period end: 03 March 2018 00:00
Orbit: 764 x 766 km, 98.2° (Epoch: 20 February)

Date Brightness Start Highest point End Pass type
(mag) Time Alt. Az. Time Alt. Az. Time Alt. Az.
21 Feb 3.5 18:54:27 10° SE 18:59:04 37° ENE 19:03:43 10° N visible
21 Feb 5.1 20:34:03 10° SSW 20:38:09 24° W 20:42:16 10° NW visible
22 Feb 4.4 18:19:26 10° ESE 18:22:42 17° ENE 18:25:58 10° NNE visible
22 Feb 3.6 19:56:17 10° S 20:01:15 55° W 20:06:15 10° NNW visible
23 Feb 2.9 19:19:31 10° SSE 19:24:32 65° ENE 19:29:35 10° N visible
23 Feb 5.8 21:01:31 10° WSW 21:03:59 13° W 21:06:27 10° WNW visible
24 Feb 3.8 18:43:41 10° SE 18:48:01 29° ENE 18:52:22 10° N visible
24 Feb 4.7 20:22:29 10° SSW 20:26:56 31° W 20:31:26 10° NW visible
25 Feb 3.2 19:45:03 10° S 19:50:05 71° WSW 19:55:11 10° NNW visible
26 Feb 3.1 19:08:33 10° SSE 19:13:27 51° ENE 19:18:22 10° N visible
26 Feb 5.5 20:49:24 10° SW 20:52:44 17° W 20:56:04 10° NW visible
27 Feb 4.1 18:33:00 10° ESE 18:36:59 24° ENE 18:40:58 10° NNE visible
27 Feb 4.3 20:11:01 10° SSW 20:15:45 39° W 20:20:30 10° NNW visible
28 Feb 2.9 19:33:53 10° SSE 19:38:57 90° W 19:44:04 10° NNW visible
01 Mar 3.4 18:57:39 10° SE 19:02:21 40° ENE 19:07:05 10° N visible
01 Mar 5.2 20:37:35 10° SW 20:41:29 22° W 20:45:25 10° NW visible
02 Mar 4.3 18:22:28 10° ESE 18:25:58 19° ENE 18:29:28 10° NNE visible
02 Mar 3.8 19:59:39 10° S 20:04:35 50° W 20:09:31 10° NNW visible
